Location: Jackson Park
(37.2862°N, 79.9123°W)
Time: 14:47:37
(UTC+00:00)

Vanguard 2 Rocket - Pass Details

Date: 15 May 2026
Orbit: 553 x 3286 km, 32.9° (Epoch: 6 June)

Event Time Altitude Azimuth Distance (km) Brightness Sun altitude
Rises 15:19:51 0° 230° (SW) 4,786 10.5 58.7°
Reaches altitude 10° 15:22:36 10° 225° (SW) 4,105 10.3 59.2°
Maximum altitude 15:34:07 54° 152° (SSE) 2,916 11.3 61.2°
Drops below altitude 10° 15:51:59 10° 82° (E) 6,151 11.5 64.1°
Sets 15:57:11 0° 79° (E) 7,258 11.7 64.9°
